W0AKO Weather Reports


time (UTC)temp
F
wind
direction
speed
knots
gust
knots
rain 1hr
in
rain 24hr
in
rain mn
in
humidity
%
barometer
mb
20260507074410 65 215 1.7 1.7 0.00 0.00 0.00 10 1020.2
20260507073909 67 138 0.0 0.0 0.00 0.00 0.00 10 1020.2
20260507073405 67 127 0.9 0.9 0.00 0.00 0.00 10 1020.0
20260507072901 66 150 0.9 1.7 0.00 0.00 0.00 10 1020.1
20260507072359 67 136 0.0 0.9 0.00 0.00 0.00 10 1020.4
20260507071856 67 163 1.7 1.7 0.00 0.00 0.00 10 1020.3
20260507071353 67 124 0.0 0.0 0.00 0.00 0.00 10 1020.1
20260507070849 67 154 0.0 0.0 0.00 0.00 0.00 10 1020.1
20260507070347 67 210 0.0 0.0 0.00 0.00 0.00 10 1020.2
20260507065844 68 212 0.0 0.0 0.00 0.00 0.00 10 1020.0
20260507065340 67 191 0.0 0.0 0.00 0.00 0.00 10 1020.0
20260507064837 68 266 0.9 1.7 0.00 0.00 0.00 10 1019.9
20260507064336 69 350 1.7 2.6 0.00 0.00 0.00 10 1020.1
20260507063833 69 62 1.7 6.1 0.00 0.00 0.00 10 1019.9
20260507063330 69 131 2.6 4.3 0.00 0.00 0.00 10 1019.7
20260507062827 69 67 0.9 1.7 0.00 0.00 0.00 10 1019.7
20260507062324 69 55 0.0 0.0 0.00 0.00 0.00 10 1019.7
20260507061822 70 100 1.7 2.6 0.00 0.00 0.00 10 1019.6
20260507061319 70 147 2.6 4.3 0.00 0.00 0.00 10 1019.4
20260507060817 71 113 2.6 4.3 0.00 0.00 0.00 10 1019.5
20260507060314 71 93 7.0 8.7 0.00 0.00 0.00 10 1019.7
20260507055810 71 185 5.2 7.0 0.00 0.00 0.00 10 1019.5
20260507055306 71 122 7.0 8.7 0.00 0.00 0.00 10 1019.4
20260507054803 72 135 6.1 7.0 0.00 0.00 0.00 10 1019.3
20260507054259 72 114 4.3 7.0 0.00 0.00 0.00 10 1019.4
20260507053756 72 73 5.2 12.2 0.00 0.00 0.00 10 1019.1
20260507053254 72 106 9.6 11.3 0.00 0.00 0.00 10 1019.2
20260507052753 72 175 7.0 9.6 0.00 0.00 0.00 10 1019.3
20260507052249 72 151 10.4 13.0 0.00 0.00 0.00 10 1019.3
20260507051747 72 37 5.2 7.8 0.00 0.00 0.00 10 1019.1
20260507051244 72 6 7.8 9.6 0.00 0.00 0.00 10 1019.0
20260507050741 72 97 5.2 7.0 0.00 0.00 0.00 10 1019.0
20260507050237 72 122 6.1 9.6 0.00 0.00 0.00 10 1019.2
20260507045734 72 102 7.8 12.2 0.00 0.00 0.00 10 1019.0
20260507045230 72 61 5.2 7.8 0.00 0.00 0.00 10 1018.9
20260507044727 72 109 5.2 7.0 0.00 0.00 0.00 10 1019.0
20260507044223 72 129 7.0 8.7 0.00 0.00 0.00 10 1019.0
20260507043720 73 46 6.1 11.3 0.00 0.00 0.00 10 1019.0
20260507043217 73 83 6.1 12.2 0.00 0.00 0.00 10 1019.0
20260507042713 73 98 5.2 7.0 0.00 0.00 0.00 10 1018.8
20260507042208 73 95 5.2 7.0 0.00 0.00 0.00 10 1018.8
20260507041706 73 111 4.3 5.2 0.00 0.00 0.00 10 1018.4
20260507041203 73 61 7.0 8.7 0.00 0.00 0.00 10 1018.5
20260507040700 73 118 6.1 9.6 0.00 0.00 0.00 10 1018.4
20260507040156 73 85 9.6 12.2 0.00 0.00 0.00 10 1018.2
20260507035652 73 113 6.1 7.8 0.00 0.00 0.00 10 1018.5
20260507035148 74 64 5.2 8.7 0.00 0.00 0.00 10 1018.5
20260507034645 74 38 4.3 6.1 0.00 0.00 0.00 10 1018.3
20260507034142 74 59 4.3 6.1 0.00 0.00 0.00 10 1018.1
20260507033641 74 126 7.0 11.3 0.00 0.00 0.00 10 1018.3
20260507033138 74 133 6.1 7.8 0.00 0.00 0.00 10 1018.0
20260507032635 74 104 3.5 5.2 0.00 0.00 0.00 10 1018.1
20260507032131 74 137 8.7 11.3 0.00 0.00 0.00 10 1017.7
20260507031628 75 44 5.2 7.8 0.00 0.00 0.00 10 1017.8
20260507031124 75 33 6.1 7.8 0.00 0.00 0.00 10 1017.8
20260507030621 75 69 7.8 13.0 0.00 0.00 0.00 10 1017.6
20260507030119 75 28 7.0 7.8 0.00 0.00 0.00 10 1017.5
20260507025615 75 108 1.7 2.6 0.00 0.00 0.00 10 1017.2
20260507025113 75 11 7.8 11.3 0.00 0.00 0.00 10 1017.3
20260507024611 75 20 6.1 8.7 0.00 0.00 0.00 10 1017.3
20260507024108 76 163 5.2 8.7 0.00 0.00 0.00 10 1017.2
20260507023603 76 64 7.8 9.6 0.00 0.00 0.00 10 1017.2
20260507023101 76 79 4.3 6.1 0.00 0.00 0.00 10 1017.0
20260507022557 76 55 6.1 7.8 0.00 0.00 0.00 10 1017.1
20260507022052 77 62 7.8 11.3 0.00 0.00 0.00 10 1017.0
20260507021549 77 38 5.2 7.0 0.00 0.00 0.00 10 1017.1
20260507021045 77 112 4.3 9.6 0.00 0.00 0.00 10 1017.1
20260507020543 78 97 3.5 7.0 0.00 0.00 0.00 10 1017.1
20260507020039 78 42 4.3 5.2 0.00 0.00 0.00 10 1017.0
20260507015538 78 131 7.0 11.3 0.00 0.00 0.00 10 1016.8
20260507015035 78 12 7.0 11.3 0.00 0.00 0.00 10 1016.7
20260507014531 79 101 4.3 7.0 0.00 0.00 0.00 10 1016.9
20260507014027 79 112 6.1 13.0 0.00 0.00 0.00 10 1017.0
20260507013524 79 83 7.0 9.6 0.00 0.00 0.00 10 1016.9
20260507013021 79 56 3.5 5.2 0.00 0.00 0.00 10 1016.9
20260507012519 80 53 4.3 6.1 0.00 0.00 0.00 10 1016.8
20260507012015 79 35 7.8 12.2 0.00 0.00 0.00 10 1016.8
20260507011512 80 120 4.3 5.2 0.00 0.00 0.00 10 1016.7
20260507011008 80 164 3.5 5.2 0.00 0.00 0.00 10 1016.7
20260507010503 80 86 5.2 7.0 0.00 0.00 0.00 10 1016.8
20260507005959 80 141 2.6 5.2 0.00 0.00 0.00 10 1016.7
20260507005457 81 56 3.5 5.2 0.00 0.00 0.00 10 1016.6
20260507004953 81 79 6.1 8.7 0.00 0.00 0.00 10 1016.6
20260507004450 81 121 3.5 4.3 0.00 0.00 0.00 10 1016.5
20260507003948 81 121 3.5 5.2 0.00 0.00 0.00 10 1016.7
20260507003443 82 48 5.2 7.0 0.00 0.00 0.00 10 1016.8
20260507002938 81 69 5.2 7.8 0.00 0.00 0.00 10 1016.7
20260507002435 82 154 7.8 8.7 0.00 0.00 0.00 10 1016.6
20260507001931 82 157 2.6 4.3 0.00 0.00 0.00 10 1016.3
20260507001428 82 107 2.6 2.6 0.00 0.00 0.00 10 1016.4
20260507000926 82 83 6.1 8.7 0.00 0.00 0.00 10 1016.4
20260507000421 82 16 2.6 4.3 0.00 0.00 0.00 10 1016.4
20260506235917 82 67 4.3 7.0 0.00 0.00 0.00 10 1016.3
20260506235415 81 14 6.1 9.6 0.00 0.00 0.00 10 1016.3
20260506234910 82 65 6.1 9.6 0.00 0.00 0.00 10 1016.2
20260506234408 82 31 5.2 7.0 0.00 0.00 0.00 10 1016.2
20260506233906 82 23 6.1 7.8 0.00 0.00 0.00 10 1016.2
20260506233401 82 14 9.6 13.0 0.00 0.00 0.00 10 1015.8
20260506232858 83 64 8.7 11.3 0.00 0.00 0.00 10 1015.8
20260506232354 83 44 5.2 7.0 0.00 0.00 0.00 10 1016.0
20260506231850 83 81 5.2 9.6 0.00 0.00 0.00 10 1015.9
20260506231348 82 62 2.6 4.3 0.00 0.00 0.00 10 1016.0
20260506230845 83 163 0.0 0.9 0.00 0.00 0.00 10 1016.0
20260506230342 82 51 5.2 6.1 0.00 0.00 0.00 10 1015.8
20260506225838 81 41 2.6 2.6 0.00 0.00 0.00 10 1015.8
20260506225336 83 164 2.6 6.1 0.00 0.00 0.00 10 1015.9
20260506224833 82 42 2.6 2.6 0.00 0.00 0.00 10 1015.9
20260506224330 82 358 2.6 2.6 0.00 0.00 0.00 10 1015.9
20260506223826 82 7 5.2 6.1 0.00 0.00 0.00 10 1016.0
20260506223321 82 4 6.1 8.7 0.00 0.00 0.00 10 1016.2
20260506222819 82 6 5.2 6.1 0.00 0.00 0.00 10 1016.3
20260506222314 82 9 4.3 7.0 0.00 0.00 0.00 10 1016.2
20260506221813 83 48 3.5 4.3 0.00 0.00 0.00 10 1016.2
20260506221310 82 21 3.5 5.2 0.00 0.00 0.00 10 1016.4
20260506220807 83 103 13.9 20.0 0.00 0.00 0.00 10 1015.6
20260506220302 82 43 4.3 5.2 0.00 0.00 0.00 10 1016.4
20260506215759 83 39 6.1 7.8 0.00 0.00 0.00 10 1016.4
20260506215255 84 74 1.7 2.6 0.00 0.00 0.00 10 1016.3
20260506214751 83 151 0.9 2.6 0.00 0.00 0.00 10 1016.4
20260506214248 82 155 1.7 2.6 0.00 0.00 0.00 10 1016.4
20260506213746 82 63 0.9 0.9 0.00 0.00 0.00 10 1016.6
20260506213243 83 9 7.8 9.6 0.00 0.00 0.00 10 1016.6
20260506212740 83 76 1.7 1.7 0.00 0.00 0.00 10 1016.5
20260506212236 82 133 0.9 1.7 0.00 0.00 0.00 10 1016.6
20260506211732 81 328 4.3 5.2 0.00 0.00 0.00 10 1016.7
20260506211228 81 278 0.0 0.0 0.00 0.00 0.00 10 1016.8
20260506210725 82 126 1.7 2.6 0.00 0.00 0.00 10 1016.7
20260506210222 82 280 1.7 1.7 0.00 0.00 0.00 10 1016.5
20260506205719 81 179 0.0 0.9 0.00 0.00 0.00 10 1016.7
20260506205214 81 231 3.5 5.2 0.00 0.00 0.00 10 1016.6
20260506204712 81 48 1.7 1.7 0.00 0.00 0.00 10 1016.9
20260506204209 80 40 4.3 5.2 0.00 0.00 0.00 10 1017.0
20260506203707 81 51 3.5 6.1 0.00 0.00 0.00 10 1016.7
20260506203204 78 116 2.6 4.3 0.00 0.00 0.00 10 1016.8
20260506202702 79 249 2.6 2.6 0.00 0.00 0.00 10 1017.0
20260506202157 81 91 2.6 2.6 0.00 0.00 0.00 10 1016.8
20260506201655 81 145 1.7 2.6 0.00 0.00 0.00 10 1017.0
20260506201150 82 166 0.0 0.9 0.00 0.00 0.00 10 1017.0
20260506200648 83 152 0.0 0.9 0.00 0.00 0.00 10 1017.1
20260506200144 82 145 3.5 4.3 0.00 0.00 0.00 10 1017.2
20260506195641 81 172 0.0 0.0 0.00 0.00 0.00 10 1017.3
20260506195137 78 182 4.3 6.1 0.00 0.00 0.00 10 1017.1
20260506194635 77 241 7.0 7.8 0.00 0.00 0.00 10 1017.3
20260506194131 78 284 2.6 2.6 0.00 0.00 0.00 10 1017.2
20260506193629 78 262 2.6 2.6 0.00 0.00 0.00 10 1017.2
20260506193126 81 187 2.6 4.3 0.00 0.00 0.00 10 1017.5
20260506192622 79 64 0.0 0.9 0.00 0.00 0.00 10 1017.5
20260506192118 80 121 2.6 4.3 0.00 0.00 0.00 10 1017.7
20260506191615 78 161 0.9 4.3 0.00 0.00 0.00 10 1017.3
20260506191111 79 147 1.7 1.7 0.00 0.00 0.00 10 1017.7
20260506190609 79 122 3.5 5.2 0.00 0.00 0.00 10 1017.6
20260506190105 78 138 0.9 1.7 0.00 0.00 0.00 10 1017.5
20260506185602 78 110 5.2 7.0 0.00 0.00 0.00 10 1017.8
20260506185053 78 150 0.9 0.9 0.00 0.00 0.00 10 1017.8
20260506184551 78 112 3.5 4.3 0.00 0.00 0.00 10 1017.9
20260506184048 79 141 0.9 1.7 0.00 0.00 0.00 10 1017.8
20260506183544 77 131 3.5 5.2 0.00 0.00 0.00 10 1017.9
20260506183041 76 146 0.0 0.0 0.00 0.00 0.00 10 1017.9
20260506182538 75 216 0.0 0.9 0.00 0.00 0.00 10 1018.1
20260506182035 74 17 2.6 2.6 0.00 0.00 0.00 10 1018.2
20260506181533 77 228 2.6 4.3 0.00 0.00 0.00 10 1018.0
20260506181029 74 97 0.9 1.7 0.00 0.00 0.00 10 1018.4
20260506180526 73 322 5.2 6.1 0.00 0.00 0.00 10 1018.1
20260506180023 72 307 2.6 4.3 0.00 0.00 0.00 10 1018.0
20260506175519 72 207 1.7 1.7 0.00 0.00 0.00 10 1018.3
20260506175016 74 269 6.1 7.0 0.00 0.00 0.00 10 1018.3
20260506174515 72 224 4.3 5.2 0.00 0.00 0.00 10 1018.0
20260506174010 74 223 2.6 2.6 0.00 0.00 0.00 10 1018.3
20260506173508 72 210 2.6 4.3 0.00 0.00 0.00 10 1018.4
20260506173005 71 231 5.2 6.1 0.00 0.00 0.00 10 1018.4
20260506172502 71 267 3.5 4.3 0.00 0.00 0.00 10 1018.5
20260506171958 71 271 3.5 5.2 0.00 0.00 0.00 10 1018.4
20260506171455 71 167 1.7 1.7 0.00 0.00 0.00 10 1018.3
20260506170953 70 233 7.8 8.7 0.00 0.00 0.00 10 1018.2
20260506170450 70 168 0.0 0.9 0.00 0.00 0.00 10 1018.1
20260506165948 69 220 2.6 2.6 0.00 0.00 0.00 10 1018.2
20260506165447 69 235 1.7 1.7 0.00 0.00 0.00 10 1018.3
20260506164942 69 208 3.5 4.3 0.00 0.00 0.00 10 1018.2
20260506164439 69 218 1.7 1.7 0.00 0.00 0.00 10 1018.1
20260506163936 69 229 4.3 5.2 0.00 0.00 0.00 10 1018.2
20260506163431 70 237 6.1 7.0 0.00 0.00 0.00 10 1018.2
20260506162921 68 273 0.0 0.9 0.00 0.00 0.00 10 1018.1
20260506162419 68 211 2.6 2.6 0.00 0.00 0.00 10 1018.3
20260506161916 68 301 4.3 6.1 0.00 0.00 0.00 10 1018.0
20260506161414 68 282 4.3 6.1 0.00 0.00 0.00 10 1018.1
20260506160911 68 204 0.9 0.9 0.00 0.00 0.00 10 1018.3
20260506160408 67 195 5.2 7.0 0.00 0.00 0.00 10 1018.1
20260506155906 67 325 5.2 6.1 0.00 0.00 0.00 10 1018.3
20260506155403 66 299 1.7 1.7 0.00 0.00 0.00 10 1018.4
20260506153525 66 292 2.6 2.6 0.00 0.00 0.00 10 1018.1
20260506153023 66 248 0.0 0.9 0.00 0.00 0.00 10 1018.0
20260506152519 66 182 0.0 0.0 0.00 0.00 0.00 10 1018.4
20260506152018 66 170 0.0 0.0 0.00 0.00 0.00 10 1018.4
20260506151515 65 210 0.0 0.0 0.00 0.00 0.00 10 1018.5
20260506151012 64 210 1.7 1.7 0.00 0.00 0.00 10 1018.2
20260506150508 65 214 2.6 2.6 0.00 0.00 0.00 10 1018.1
20260506150005 64 189 0.0 0.0 0.00 0.00 0.00 10 1018.3
20260506145502 66 167 0.0 0.0 0.00 0.00 0.00 10 1018.0
20260506145000 66 176 0.0 0.9 0.00 0.00 0.00 10 1018.1
20260506144456 65 152 0.0 0.0 0.00 0.00 0.00 10 1018.0
20260506143954 65 158 0.0 0.9 0.00 0.00 0.00 10 1018.1
20260506143451 64 152 0.9 0.9 0.00 0.00 0.00 10 1017.8
20260506142949 64 105 1.7 1.7 0.00 0.00 0.00 10 1017.8
20260506142447 63 119 1.7 1.7 0.00 0.00 0.00 10 1017.9
20260506141944 62 131 0.9 0.9 0.00 0.00 0.00 10 1017.8
20260506141442 62 135 0.9 1.7 0.00 0.00 0.00 10 1017.6
20260506140941 61 146 0.0 0.9 0.00 0.00 0.00 10 1017.9
20260506140437 60 151 0.9 1.7 0.00 0.00 0.00 10 1017.7
20260506135934 59 127 0.9 1.7 0.00 0.00 0.00 10 1017.5
20260506135431 60 129 1.7 1.7 0.00 0.00 0.00 10 1017.2
20260506134927 61 166 0.0 0.0 0.00 0.00 0.00 10 1017.5
20260506134423 60 165 0.0 0.9 0.00 0.00 0.00 10 1017.3
20260506133921 59 182 1.7 1.7 0.00 0.00 0.00 10 1017.0
20260506133417 59 153 2.6 2.6 0.00 0.00 0.00 10 1017.0
20260506132914 58 173 0.9 0.9 0.00 0.00 0.00 10 1017.0
20260506132411 57 183 0.9 0.9 0.00 0.00 0.00 10 1016.9
20260506131909 56 205 0.0 0.0 0.00 0.00 0.00 10 1016.7
20260506131405 57 205 0.0 0.0 0.00 0.00 0.00 10 1016.9
20260506130902 58 207 0.0 0.0 0.00 0.00 0.00 10 1016.8
20260506130358 58 205 0.0 0.0 0.00 0.00 0.00 10 1016.4
20260506125857 57 205 0.0 0.0 0.00 0.00 0.00 10 1016.7
20260506125355 57 205 0.0 0.0 0.00 0.00 0.00 10 1016.6
20260506124853 58 207 0.0 0.0 0.00 0.00 0.00 10 1016.3
20260506124349 58 181 0.0 0.9 0.00 0.00 0.00 10 1016.4
20260506123847 58 193 0.9 0.9 0.00 0.00 0.00 10 1016.2
20260506123345 58 187 1.7 1.7 0.00 0.00 0.00 10 1016.0
20260506122842 58 176 0.9 0.9 0.00 0.00 0.00 10 1016.0
20260506122339 57 160 0.0 0.9 0.00 0.00 0.00 10 1016.0
20260506121837 56 159 0.9 0.9 0.00 0.00 0.00 10 1016.0
20260506121334 56 168 0.0 0.0 0.00 0.00 0.00 10 1016.0
20260506120831 56 174 0.9 0.9 0.00 0.00 0.00 10 1015.8
20260506120329 57 194 1.7 1.7 0.00 0.00 0.00 10 1015.8
20260506115826 57 202 0.0 0.9 0.00 0.00 0.00 10 1015.7
20260506115324 57 203 0.0 0.0 0.00 0.00 0.00 10 1015.8
20260506114822 59 286 0.9 0.9 0.00 0.00 0.00 10 1015.8
20260506114320 59 161 0.9 0.9 0.00 0.00 0.00 10 1015.7
20260506113818 58 160 0.0 0.9 0.00 0.00 0.00 10 1015.4
20260506113315 57 158 0.9 0.9 0.00 0.00 0.00 10 1015.7
20260506112811 57 134 1.7 1.7 0.00 0.00 0.00 10 1015.6
20260506112309 57 88 2.6 2.6 0.00 0.00 0.00 10 1015.5
20260506111806 59 169 0.0 0.0 0.00 0.00 0.00 10 1015.2
20260506111304 59 163 0.0 0.9 0.00 0.00 0.00 10 1015.3
20260506110801 59 156 0.9 1.7 0.00 0.00 0.00 10 1015.3
20260506110258 59 163 1.7 1.7 0.00 0.00 0.00 10 1015.2
20260506105755 59 159 2.6 2.6 0.00 0.00 0.00 10 1015.1
20260506105252 59 177 0.0 0.0 0.00 0.00 0.00 10 1015.1
20260506104749 59 163 0.0 0.0 0.00 0.00 0.00 10 1015.1
20260506104247 59 170 0.0 0.0 0.00 0.00 0.00 10 1015.0
20260506103744 60 170 0.0 0.0 0.00 0.00 0.00 10 1015.0
20260506103241 60 170 0.0 0.0 0.00 0.00 0.00 10 1015.0
20260506102739 60 169 0.0 0.0 0.00 0.00 0.00 10 1015.0
20260506102237 60 164 0.0 0.0 0.00 0.00 0.00 10 1015.1
20260506101734 59 164 0.0 0.0 0.00 0.00 0.00 10 1014.7
20260506101230 59 164 0.0 0.0 0.00 0.00 0.00 10 1014.8
20260506100728 59 164 0.0 0.0 0.00 0.00 0.00 10 1015.0
20260506100226 59 162 0.0 0.0 0.00 0.00 0.00 10 1014.7
20260506095724 59 153 0.0 0.0 0.00 0.00 0.00 10 1014.6
20260506095220 60 206 0.9 1.7 0.00 0.00 0.00 10 1014.6
20260506094717 60 162 2.6 2.6 0.00 0.00 0.00 10 1014.6
20260506094216 61 189 0.0 0.0 0.00 0.00 0.00 10 1014.7
20260506093714 62 162 0.9 0.9 0.00 0.00 0.00 10 1014.5
20260506093211 62 152 1.7 1.7 0.00 0.00 0.00 10 1014.3
20260506092709 62 196 0.0 0.0 0.00 0.00 0.00 10 1014.5
20260506092206 63 218 1.7 1.7 0.00 0.00 0.00 10 1014.4
20260506091704 62 155 0.0 0.0 0.00 0.00 0.00 10 1014.4
20260506091201 63 177 0.0 0.0 0.00 0.00 0.00 10 1014.5
20260506090659 63 187 0.0 0.0 0.00 0.00 0.00 10 1014.2
20260506090155 62 200 0.9 1.7 0.00 0.00 0.00 10 1014.3
20260506085652 63 193 0.9 0.9 0.00 0.00 0.00 10 1014.4
20260506085148 63 183 0.0 0.9 0.00 0.00 0.00 10 1014.3
20260506084645 63 196 0.0 0.9 0.00 0.00 0.00 10 1014.2
20260506084141 63 169 0.0 0.0 0.00 0.00 0.00 10 1014.1
20260506083638 62 189 0.0 0.0 0.00 0.00 0.00 10 1014.1
20260506083136 62 153 0.0 0.0 0.00 0.00 0.00 10 1014.1
20260506082633 62 161 0.0 0.0 0.00 0.00 0.00 10 1013.9
20260506082128 62 144 0.0 0.0 0.00 0.00 0.00 10 1014.2
20260506081627 62 156 0.0 0.0 0.00 0.00 0.00 10 1014.4
20260506081124 63 153 0.0 1.7 0.00 0.00 0.00 10 1014.0
20260506080622 63 150 1.7 1.7 0.00 0.00 0.00 10 1014.0
20260506080118 64 166 0.0 0.0 0.00 0.00 0.00 10 1014.0